TimeCDT,TemperatureF,Dew PointF,Humidity,Sea Level PressureIn,VisibilityMPH,Wind Direction,Wind SpeedMPH,Gust SpeedMPH,PrecipitationIn,Events,Conditions,WindDirDegrees,DateUTC
12:53 AM,72.0,64.0,76,29.99,10.0,Calm,Calm,-,N/A,,Clear,0,2013-06-15 05:53:00
1:53 AM,69.1,64.0,84,29.96,10.0,Calm,Calm,-,N/A,,Clear,0,2013-06-15 06:53:00
2:53 AM,69.1,64.0,84,29.96,10.0,Calm,Calm,-,N/A,,Clear,0,2013-06-15 07:53:00
3:53 AM,68.0,63.0,84,29.96,10.0,Calm,Calm,-,N/A,,Clear,0,2013-06-15 08:53:00
4:53 AM,69.1,62.1,78,29.98,10.0,ENE,3.5,-,N/A,,Clear,70,2013-06-15 09:53:00
5:53 AM,66.9,61.0,81,29.99,10.0,Calm,Calm,-,N/A,,Clear,0,2013-06-15 10:53:00
6:53 AM,70.0,62.1,76,30.00,10.0,Calm,Calm,-,N/A,,Clear,0,2013-06-15 11:53:00
7:53 AM,75.0,64.0,69,30.01,10.0,East,3.5,-,N/A,,Clear,90,2013-06-15 12:53:00
8:53 AM,79.0,64.0,60,30.02,10.0,ESE,6.9,-,N/A,,Clear,110,2013-06-15 13:53:00
9:53 AM,82.9,64.0,53,30.03,10.0,SE,6.9,-,N/A,,Clear,130,2013-06-15 14:53:00
10:53 AM,84.9,64.0,49,30.02,10.0,Variable,4.6,-,N/A,,Clear,0,2013-06-15 15:53:00
11:53 AM,86.0,63.0,46,30.02,10.0,Variable,3.5,-,N/A,,Clear,0,2013-06-15 16:53:00
12:53 PM,88.0,62.1,42,30.01,10.0,SE,4.6,-,N/A,,Clear,130,2013-06-15 17:53:00
1:53 PM,89.1,64.0,43,29.99,10.0,SSE,8.1,-,N/A,,Clear,150,2013-06-15 18:53:00
2:53 PM,90.0,64.9,43,29.98,10.0,Variable,5.8,-,N/A,,Clear,0,2013-06-15 19:53:00
3:53 PM,90.0,64.9,43,29.97,10.0,ESE,4.6,-,N/A,,Clear,120,2013-06-15 20:53:00
4:53 PM,89.1,66.0,46,29.96,10.0,SE,6.9,-,N/A,,Clear,140,2013-06-15 21:53:00
5:53 PM,88.0,66.9,49,29.95,10.0,SSE,4.6,-,N/A,,Mostly Cloudy,150,2013-06-15 22:53:00
6:53 PM,87.1,66.0,49,29.95,10.0,SE,5.8,-,N/A,,Scattered Clouds,130,2013-06-15 23:53:00
7:53 PM,84.0,66.9,56,29.96,10.0,East,3.5,-,N/A,,Clear,90,2013-06-16 00:53:00
8:53 PM,80.1,68.0,67,29.96,10.0,East,3.5,-,N/A,,Clear,80,2013-06-16 01:53:00
9:53 PM,79.0,69.1,72,29.99,10.0,Calm,Calm,-,N/A,,Clear,0,2013-06-16 02:53:00
10:53 PM,78.1,69.1,74,29.99,10.0,Calm,Calm,-,N/A,,Clear,0,2013-06-16 03:53:00
11:53 PM,78.1,68.0,71,29.99,10.0,ESE,5.8,-,N/A,,Clear,120,2013-06-16 04:53:00